www.pogodaiklimat.ru

Погода и климат >> Архив погоды >> Антарктида >> Dumont Durville


ПОГОДА в Dumont Durville

  • Прогноз погоды в Dumont Durville
  • Монитор погоды в Dumont Durville
  • Климат города

АРХИВ ПОГОДЫ в Dumont Durville

Время (UTC), дата Ветер
(напр.,м/с)
 
Видим.   Явления Облачность Т
(С)
Тd
(С)
f
(%)
Тe
(С)
Тes
(С)
Комфортность P
(гПа)
Po
(гПа)
Тmin
(С)
Tmax
(С)
R
(мм)
R24
(мм)
S
(см)
06 16.01 З 2 н/о н/о +2.1 -2.6 71 -0 -0 975.0 969.8
09 16.01 З 3 30 км 6/0
[Ac trans Cs]
+0.9 -2.0 81 -3 -2 974.6 969.4
12 16.01 СЗ 2 н/о н/о -1.5 -3.2 88 -5 -5 974.5 969.3 -1.6 +3.3
15 16.01 В 1 н/о н/о -2.5 -3.3 94 -3 -3 973.8 968.5
18 16.01 ЮВ 1 н/о н/о -3.2 -4.5 91 -6 -6 973.6 968.3
21 16.01 З 3 40 км 6/6 1500 м
[]
-2.7 -6.0 78 -7 -6 973.8 968.5
00 17.01 З 3 40 км 6/1 180 м
[St Ci fib]
+0.8 -4.6 67 -3 +3 974.0 968.8 -3.3 +1.1
03 17.01 З 6 50 км 1/1 180 м
[St Ci fib]
+0.6 -3.5 74 -5 -1 973.8 968.6
06 17.01 З 5 50 км 1/0
[Ci fib]
+0.3 -3.3 77 -6 -2 973.8 968.6
09 17.01 З 5 50 км 1/1 180 м
[St Ci fib]
-0.3 -3.3 80 -6 -5 974.4 969.2
12 17.01 Ю 2 н/о н/о -2.4 -4.4 86 -6 -6 975.1 969.8 -3.1 +1.2
15 17.01 Ю 4 н/о н/о -5.1 -11.3 62 -11 -11 975.8 970.5
18 17.01 Ю 6 н/о н/о -6.4 -12.1 64 -14 -14 976.9 971.5
21 17.01 В 2 50 км 3/0
[]
-4.7 -10.3 65 -8 -5 977.8 972.5
00 18.01 ЮЗ 1 н/о н/о -2.5 -8.4 64 -4 -4 978.7 973.4 -6.7 -1.9
03 18.01 Ю 1 50 км 3/1 900 м
[Sc Ci fib]
+0.6 -8.1 52 -1 +10 979.0 973.8
06 18.01 ЮЗ 3 40 км 4/1 800 м
[Sc Ac lent Ci fib]
+0.8 -5.0 65 -3 +1 979.2 974.0
09 18.01 З 5 35 км 8/3 800 м
[Sc Ac und]
-0.5 -3.4 81 -6 -6 979.2 974.0
12 18.01 Ю 1 н/о н/о -1.2 -4.2 80 -3 -3 979.6 974.3 -2.7 +1.3
15 18.01 В 4 н/о н/о -2.1 -3.7 89 -8 -8 979.2 973.9
18 18.01 В 3 н/о н/о -2.3 -5.1 81 -7 -7 979.0 973.7
21 18.01 В 6 15 км 10/10 800 м
[]
-2.2 -7.9 65 -9 -9 978.9 973.6
00 19.01 В 6 н/о н/о -1.5 -7.6 63 -8 -8 978.9 973.6 -2.4 -1.1
03 19.01 СВ 5 15 км слабый снег 10/4 700 м
[Sc As op]
-1.1 -5.3 73 -7 -6 978.3 973.0
06 19.01 В 6 3000 м слабый снег 10/10 240 м
[Sc]
-2.0 -3.6 89 -9 -9 977.9 972.6
09 19.01 В 6 2500 м слабый снег 10/10 240 м
[Sc]
-2.5 -3.5 93 -10 -10 977.5 972.2
12 19.01 В 7 н/о н/о -3.0 -3.8 94 -11 -11 977.2 971.9 -3.0 -0.7
15 19.01 В 8 н/о н/о -3.0 -3.5 96 -11 -11 976.5 971.2
18 19.01 В 10
{14}
н/о н/о -2.3 -3.4 92 -11 -11 976.2 970.9
21 19.01 В 13-21
{21}
8000 м 10/10 480 м
[]
-1.6 -4.1 83 -11 -11 975.9 970.7
00 20.01 В 12-20
{22}
1000 м слабый снег {метель} ?/? -1.6 -3.5 87 -11 -11 976.7 971.4 -3.1 -1.2
03 20.01 В 9-15
{19}
10 км слабый снег 10/10 300 м
[Frnb]
-0.7 -2.9 85 -9 -9 977.1 971.9
06 20.01 В 9
{19}
5000 м слабый снег ?/? -0.7 -2.3 89 -9 -9 977.4 972.2
09 20.01 В 7 5000 м слабый снег ?/? -1.1 -2.5 90 -9 -9 977.7 972.5
12 20.01 В 6 н/о н/о -2.0 -3.1 92 -9 -9 978.5 973.2 -2.0 -0.3
15 20.01 В 10
{15}
н/о н/о -2.4 -4.6 85 -11 -11 978.8 973.5
18 20.01 В 10
{17}
н/о н/о -2.3 -5.8 77 -11 -11 979.1 973.8
21 20.01 В 10
{16}
1200 м ?/? -2.7 -4.9 85 -12 -12 979.7 974.4
00 21.01 В 9
{19}
15 км слабый снег 10/8 300 м
[Frnb As op]
-2.1 -5.4 78 -11 -11 980.0 974.7 -2.9 -1.7
03 21.01 В 6
{20}
1500 м слабый снег ?/? -2.4 -4.6 85 -9 -9 980.4 975.1
06 21.01 В 4
{20}
3000 м слабый снег ?/? -1.6 -4.1 83 -7 -7 980.2 974.9
09 21.01 ЮВ 3 5000 м слабый снег ?/? -2.1 -3.7 89 -7 -7 979.8 974.5
12 21.01 ЮВ 2 н/о н/о -2.5 -4.8 84 -7 -7 979.9 974.6 -2.5 -1.5
15 21.01 В 6 н/о н/о -1.9 -8.4 61 -8 -8 979.5 974.2
18 21.01 В 7 н/о н/о -3.3 -10.0 60 -11 -11 979.4 974.1
21 21.01 В 4 25 км 9/9 1000 м
[]
-3.1 -9.6 61 -9 -9 980.0 974.7
00 22.01 СВ 4 25 км 9/4 1500 м
[Sc Ac As]
-1.9 -8.6 60 -7 -6 980.4 975.1 -3.9 -1.6
03 22.01 СВ 3 25 км 10/4 1500 м
[Sc Ac As]
-1.1 -9.5 53 -5 -4 980.7 975.4
06 22.01 В 5 25 км 9/4 1500 м
[Sc Ac As]
-1.4 -6.7 67 -7 -6 980.2 974.9
09 22.01 В 3 30 км 9/4 1500 м
[Sc Ac As]
-1.8 -5.0 79 -7 -6 980.0 974.7
12 22.01 В 3 н/о н/о -3.5 -7.0 77 -9 -9 980.3 975.0 -3.5 -0.7
15 22.01 В 3 н/о н/о -5.8 -11.1 66 -11 -11 979.6 974.2
18 22.01 В 7 н/о н/о -5.3 -12.1 59 -13 -13 979.2 973.9
21 22.01 В 6 50 км 4/4 1300 м
[]
-4.1 -11.2 58 -11 -10 980.0 974.7
00 23.01 В 5 50 км 4/1 1500 м
[Sc Cc]
-2.4 -9.5 58 -9 -5 980.6 975.3 -6.2 -2.1

 

Местоположение метеостанции Dumont Durville (Антарктида): широта -66.66 долгота 140.01 высота над уровнем моря 43 м.

В архиве по умолчанию представлена погода в Dumont Durville за последнюю неделю. Архивные данные за месяц целиком и за предыдущие месяцы, начиная с января 2011 года, Вы можете получить, выбрав интересующий диапазон дат из раскрывающегося списка и нажав кнопку "Ввод!".

Внимание! Время в таблицах - всемирное. Для получения местного времени необходимо прибавить поправку, которая в Dumont Durville равна 0 ч.

Смотрите также архив погоды в соседних городах и на ближайших метеорологических станциях:

Погода в D-47 (Антарктида) (98 км)
Погода в Sitry Point (Антарктида) (651 км)
Погода в Mid Point (Антарктида) (691 км)
Погода в Leningradskaya (Антарктида) (860 км)
Погода в Dome C II (Антарктида) (1110 км)
Погода в Macquarie Island (Австралия) (1688 км)

Пояснения к столбцам:

Ветер - указаны скорость ветра в м/с - средняя за 10 мин, порывы в срок и между сроками (в фигурных скобках) и направление, откуда дует ветер: С - северный, СВ - северо-восточный, В - восточный, ЮВ - юго-восточный, Ю - южный, ЮЗ - юго-западный, З - западный, СЗ - северо-западный.
Видимость - горизонтальная дальность видимости в метрах или километрах. При видимости от 1 до 10 км при отсутствии осадков обычно наблюдается дымка, при ухудшении видимости до 1 км и менее - туман. В сухую погоду видимость может ухудшаться дымом, пылью или мглою.
Явления - указаны атмосферные явления, наблюдавшиеся в срок или в последний час перед сроком; фигурными скобками обозначены явления, наблюдавшиеся между сроками (за 1-3 часа до срока); квадратными скобками обозначены град или гололедные отложения с указанием их диаметра в мм.
Облачность - указаны через наклонную черту общая и нижняя облачность в баллах и высота нижней границы облаков в метрах; квадратными скобками обозначены формы облаков: Ci - перистые, Cs - перисто-слоистые, Cc - перисто-кучевые, Ac - высококучевые, As - высокослоистые, Sc - слоисто-кучевые, Ns - слоисто-дождевые, Cu - кучевые, Cb - кучево-дождевые. Подробнее классификацию облаков см. в Атласе облаков (PDF).
T - Температура воздуха - температура, измеренная на высоте 2 м над землей.
Td - Температура точки росы - температура, при понижении до которой содержащийся в воздухе водяной пар достигнет насыщения.
f - Относительная влажность воздуха - влажноcть воздуха, измеренная на высоте 2 м над землей.
Te - Эффективная температура - температура, которую ощущает одетый по сезону человек в тени. Характеристика душности погоды. При расчете учитывается влияние влажности воздуха и скорости ветра на теплоощущения человека.
Tes - Эффективная температура на солнце - температура, которую ощущает человек, с поправкой на солнечный нагрев. Характеристика знойности погоды. Зависит от высоты солнца над горизонтом, облачности и скорости ветра. Ночью, в пасмурную погоду, а также при ветре 12 м/с и более поправка равна нулю.
P - Атмосферное давление - приведенное к уровню моря атмосферное давление.
Po - Атмосферное давление - измеренное на уровне метеостанции атмосферное давление.
Tmin - Минимальная температура - минимум температуры воздуха на высоте 2 м над землей.
Tmax - Максимальная температура - максимум температуры воздуха на высоте 2 м над землей.
R - Количество осадков - Количество выпавших осадков за период времени, мм. При наведении курсора мыши на число - период времени, за который выпало указанное количество осадков.
R24 - Количество осадков - Количество выпавших осадков за 24 часа, мм.
S - Снежный покров - Высота снежного покрова, см. При наведении курсора мыши на число - состояние снежного покрова и степень покрытия местности в баллах.